Location: Chuathbaluk
(61.5726°N, 159.2454°W)
Time: 13:58:25
(UTC+00:00)

DELFI C3 - Pass Details

Date: 20 January 2021
Orbit: 531 x 550 km, 97.4° (Epoch: 04 March)

Event Time Altitude Azimuth Distance (km) Brightness Sun altitude
Exits shadow 06:12:59 33° 324° (NW) 952 ? -27.6°
Drops below altitude 10° 06:15:20 10° 338° (NNW) 1,842 ? -27.9°
Sets 06:17:30 0° 343° (NNW) 2,743 ? -28.2°
